Location: Catenanuova
(37.5690°N, 14.6870°E)
Time: 02:53:15
(UTC+02:00)

BlueWalker 3 - Pass Details

Date: 30 May 2024
Orbit: 480 x 494 km, 53.2° (Epoch: 16 June)

Event Time Altitude Azimuth Distance (km) Brightness Sun altitude
Exits shadow 05:03:26 - 221° (SW) 1,737 4.0 -7.4°
Reaches altitude 10° 05:03:40 10° 221° (SW) 1,644 3.9 -7.3°
Maximum altitude 05:07:22 75° 136° (SE) 499 1.9 -6.7°
Drops below altitude 10° 05:11:06 10° 51° (NE) 1,656 6.4 -6.1°
Sets 05:13:16 0° 49° (NE) 2,540 8.0 -5.8°
